| time (UTC) | temp C | wind direction | speed KPH | gust KPH | rain 1hr cm | rain 24hr cm | rain mn cm | humidity % | barometer mb |
| 20260504081548 | 9 | 0 | 0.0 | 0.0 | 0.00 | 0.00 | 0.00 | 59 | 1015.2 |
| 20260504044547 | 8 | 0 | 0.0 | 0.0 | 0.00 | 0.00 | 0.00 | 61 | 1015.5 |
| 20260504043048 | 9 | 0 | 0.0 | 0.0 | 0.00 | 0.00 | 0.00 | 59 | 1015.3 |
| 20260504041549 | 10 | 0 | 0.0 | 1.6 | 0.00 | 0.00 | 0.00 | 53 | 1015.4 |
| 20260504040107 | 9 | 0 | 0.0 | 1.6 | 0.00 | 0.00 | 0.00 | 53 | 1015.4 |
| 20260504034550 | 7 | 0 | 0.0 | 0.0 | 0.00 | 0.00 | 0.00 | 59 | 1015.6 |
| 20260504033050 | 7 | 0 | 0.0 | 0.0 | 0.00 | 0.00 | 0.00 | 61 | 1015.6 |
| 20260504031600 | 7 | 0 | 0.0 | 0.0 | 0.00 | 0.00 | 0.00 | 64 | 1015.5 |
| 20260504030048 | 6 | 0 | 0.0 | 0.0 | 0.00 | 0.00 | 0.00 | 68 | 1015.5 |
| 20260504024551 | 6 | 0 | 0.0 | 0.0 | 0.00 | 0.00 | 0.00 | 68 | 1015.6 |
| 20260504023052 | 7 | 0 | 0.0 | 0.0 | 0.00 | 0.00 | 0.00 | 66 | 1015.8 |
| 20260504021550 | 7 | 0 | 0.0 | 0.0 | 0.00 | 0.00 | 0.00 | 64 | 1015.5 |
| 20260504014547 | 7 | 0 | 0.0 | 0.0 | 0.00 | 0.00 | 0.00 | 62 | 1015.3 |
| 20260504013048 | 7 | 0 | 0.0 | 0.0 | 0.00 | 0.00 | 0.00 | 61 | 1014.9 |
| 20260504011549 | 8 | 0 | 0.0 | 0.0 | 0.00 | 0.00 | 0.00 | 60 | 1014.7 |
| 20260504010053 | 8 | 0 | 0.0 | 0.0 | 0.00 | 0.00 | 0.00 | 58 | 1014.7 |
| 20260504004553 | 9 | 0 | 0.0 | 0.0 | 0.00 | 0.00 | 0.00 | 58 | 1014.7 |
| 20260504003053 | 10 | 0 | 0.0 | 0.0 | 0.00 | 0.00 | 0.00 | 54 | 1014.6 |
| 20260504001552 | 11 | 0 | 0.0 | 0.0 | 0.00 | 0.00 | 0.00 | 49 | 1014.5 |
| 20260504000050 | 12 | 0 | 0.0 | 0.0 | 0.00 | 0.00 | 0.00 | 47 | 1014.5 |
| 20260503234615 | 13 | 0 | 0.0 | 0.0 | 0.00 | 0.00 | 0.00 | 42 | 1014.4 |
| 20260503233053 | 15 | 0 | 0.0 | 0.0 | 0.00 | 0.00 | 0.00 | 32 | 1014.3 |
| 20260503231548 | 17 | 0 | 0.0 | 8.0 | 0.00 | 0.00 | 0.00 | 30 | 1014.2 |
| 20260503230047 | 18 | 0 | 0.0 | 6.4 | 0.00 | 0.00 | 0.00 | 28 | 1014.0 |
| 20260503224550 | 17 | 212 | 1.6 | 8.0 | 0.00 | 0.00 | 0.00 | 24 | 1014.2 |
| 20260503223050 | 18 | 264 | 1.6 | 6.4 | 0.00 | 0.00 | 0.00 | 24 | 1014.4 |
| 20260503221601 | 18 | 289 | 1.6 | 12.9 | 0.00 | 0.00 | 0.00 | 25 | 1014.5 |
| 20260503220051 | 18 | 245 | 1.6 | 9.7 | 0.00 | 0.00 | 0.00 | 24 | 1014.6 |
| 20260503214550 | 17 | 117 | 3.2 | 8.0 | 0.00 | 0.00 | 0.00 | 26 | 1014.5 |
| 20260503213049 | 17 | 226 | 0.0 | 11.3 | 0.00 | 0.00 | 0.00 | 24 | 1014.7 |
| 20260503211546 | 17 | 251 | 1.6 | 9.7 | 0.00 | 0.00 | 0.00 | 26 | 1014.7 |
| 20260503210050 | 17 | 275 | 1.6 | 11.3 | 0.00 | 0.00 | 0.00 | 24 | 1014.7 |
| 20260503204555 | 17 | 285 | 3.2 | 9.7 | 0.00 | 0.00 | 0.00 | 24 | 1014.7 |
| 20260503203056 | 17 | 207 | 4.8 | 17.7 | 0.00 | 0.00 | 0.00 | 27 | 1015.1 |
| 20260503201553 | 17 | 295 | 1.6 | 14.5 | 0.00 | 0.00 | 0.00 | 27 | 1015.3 |
| 20260503200054 | 16 | 255 | 6.4 | 12.9 | 0.00 | 0.00 | 0.00 | 27 | 1015.5 |
| 20260503194557 | 16 | 204 | 4.8 | 14.5 | 0.00 | 0.00 | 0.00 | 28 | 1016.0 |
| 20260503193049 | 16 | 30 | 3.2 | 17.7 | 0.00 | 0.00 | 0.00 | 29 | 1016.0 |
| 20260503191552 | 16 | 4 | 1.6 | 12.9 | 0.00 | 0.00 | 0.00 | 28 | 1016.0 |
| 20260503190048 | 15 | 79 | 3.2 | 14.5 | 0.00 | 0.00 | 0.00 | 30 | 1016.4 |
| 20260503184557 | 16 | 268 | 4.8 | 9.7 | 0.00 | 0.00 | 0.00 | 31 | 1016.7 |
| 20260503183053 | 15 | 239 | 1.6 | 11.3 | 0.00 | 0.00 | 0.00 | 34 | 1016.8 |
| 20260503181547 | 15 | 258 | 3.2 | 12.9 | 0.00 | 0.00 | 0.00 | 30 | 1017.2 |
| 20260503180100 | 14 | 250 | 3.2 | 12.9 | 0.00 | 0.00 | 0.00 | 30 | 1017.3 |
| 20260503174554 | 13 | 243 | 6.4 | 17.7 | 0.00 | 0.00 | 0.00 | 31 | 1017.3 |
| 20260503173052 | 14 | 226 | 1.6 | 6.4 | 0.00 | 0.00 | 0.00 | 34 | 1017.4 |
| 20260503171551 | 13 | 274 | 4.8 | 14.5 | 0.00 | 0.00 | 0.00 | 37 | 1017.9 |
| 20260503110108 | 3 | 0 | 0.0 | 4.8 | 0.00 | 0.00 | 0.00 | 64 | 1017.8 |